Year,Month,Day,Hour,Minute,Value (Times are PST for insolation in W/m^2)
2016,08,01,00,00,0.00
2016,08,01,00,01,0.00
2016,08,01,00,02,0.00
2016,08,01,00,03,0.00
2016,08,01,00,04,0.00
2016,08,01,00,05,0.00
2016,08,01,00,06,0.00
2016,08,01,00,07,0.00
2016,08,01,00,08,0.00
2016,08,01,00,09,0.00
2016,08,01,00,10,0.00
2016,08,01,00,11,0.00
2016,08,01,00,12,0.00
2016,08,01,00,13,0.00
2016,08,01,00,14,0.00
2016,08,01,00,15,0.00
2016,08,01,00,16,0.00
2016,08,01,00,17,0.00
2016,08,01,00,18,0.00
2016,08,01,00,19,0.00
2016,08,01,00,20,0.00
2016,08,01,00,21,0.00
2016,08,01,00,22,0.00
2016,08,01,00,23,0.00
2016,08,01,00,24,0.00
2016,08,01,00,25,0.00
2016,08,01,00,26,0.00
2016,08,01,00,27,0.00
2016,08,01,00,28,0.00
2016,08,01,00,29,0.00
2016,08,01,00,30,0.00
2016,08,01,00,31,0.00
2016,08,01,00,32,0.00
2016,08,01,00,33,0.00
2016,08,01,00,34,0.00
2016,08,01,00,35,0.00
2016,08,01,00,36,0.00
2016,08,01,00,37,0.00
2016,08,01,00,38,0.00
2016,08,01,00,39,0.00
2016,08,01,00,40,0.00
2016,08,01,00,41,0.00
2016,08,01,00,42,0.00
2016,08,01,00,43,0.00
2016,08,01,00,44,0.00
2016,08,01,00,45,0.00
2016,08,01,00,46,0.00
2016,08,01,00,47,0.00
2016,08,01,00,48,0.00
2016,08,01,00,49,0.00
2016,08,01,00,50,0.00
2016,08,01,00,51,0.00
2016,08,01,00,52,0.00
2016,08,01,00,53,0.00
2016,08,01,00,54,0.00
2016,08,01,00,55,0.00
2016,08,01,00,56,0.00
2016,08,01,00,57,0.00
2016,08,01,00,58,0.00
2016,08,01,00,59,0.00
2016,08,01,01,00,0.00
2016,08,01,01,01,0.00
2016,08,01,01,02,0.00
2016,08,01,01,03,0.00
2016,08,01,01,04,0.00
2016,08,01,01,05,0.00
2016,08,01,01,06,0.00
2016,08,01,01,07,0.00
2016,08,01,01,08,0.00
2016,08,01,01,09,0.00
2016,08,01,01,10,0.00
2016,08,01,01,11,0.00
2016,08,01,01,12,0.00
2016,08,01,01,13,0.00
2016,08,01,01,14,0.00
2016,08,01,01,15,0.00
2016,08,01,01,16,0.00
2016,08,01,01,17,0.00
2016,08,01,01,18,0.00
2016,08,01,01,19,0.00
2016,08,01,01,20,0.00
2016,08,01,01,21,0.00
2016,08,01,01,22,0.00
2016,08,01,01,23,0.00
2016,08,01,01,24,0.00
2016,08,01,01,25,0.00
2016,08,01,01,26,0.00
2016,08,01,01,27,0.00
2016,08,01,01,28,0.00
2016,08,01,01,29,0.00
2016,08,01,01,30,0.00
2016,08,01,01,31,0.00
2016,08,01,01,32,0.00
2016,08,01,01,33,0.00
2016,08,01,01,34,0.00
2016,08,01,01,35,0.00
2016,08,01,01,36,0.00
2016,08,01,01,37,0.00
2016,08,01,01,38,0.00
2016,08,01,01,39,0.00
2016,08,01,01,40,0.00
2016,08,01,01,41,0.00
2016,08,01,01,42,0.00
2016,08,01,01,43,0.00
2016,08,01,01,44,0.00
2016,08,01,01,45,0.00
2016,08,01,01,46,0.00
2016,08,01,01,47,0.00
2016,08,01,01,48,0.00
2016,08,01,01,49,0.00
2016,08,01,01,50,0.00
2016,08,01,01,51,0.00
2016,08,01,01,52,0.00
2016,08,01,01,53,0.00
2016,08,01,01,54,0.00
2016,08,01,01,55,0.00
2016,08,01,01,56,0.00
2016,08,01,01,57,0.00
2016,08,01,01,58,0.00
2016,08,01,01,59,0.00
2016,08,01,02,00,0.00
2016,08,01,02,01,0.00
2016,08,01,02,02,0.00
2016,08,01,02,03,0.00
2016,08,01,02,04,0.00
2016,08,01,02,05,0.00
2016,08,01,02,06,0.00
2016,08,01,02,07,0.00
2016,08,01,02,08,0.00
2016,08,01,02,09,0.00
2016,08,01,02,10,0.00
2016,08,01,02,11,0.00
2016,08,01,02,12,0.00
2016,08,01,02,13,0.00
2016,08,01,02,14,0.00
2016,08,01,02,15,0.00
2016,08,01,02,16,0.00
2016,08,01,02,17,0.00
2016,08,01,02,18,0.00
2016,08,01,02,19,0.00
2016,08,01,02,20,0.00
2016,08,01,02,21,0.00
2016,08,01,02,22,0.00
2016,08,01,02,23,0.00
2016,08,01,02,24,0.00
2016,08,01,02,25,0.00
2016,08,01,02,26,0.00
2016,08,01,02,27,0.00
2016,08,01,02,28,0.00
2016,08,01,02,29,0.00
2016,08,01,02,30,0.00
2016,08,01,02,31,0.00
2016,08,01,02,32,0.00
2016,08,01,02,33,0.00
2016,08,01,02,34,0.00
2016,08,01,02,35,0.00
2016,08,01,02,36,0.00
2016,08,01,02,37,0.00
2016,08,01,02,38,0.00
2016,08,01,02,39,0.00
2016,08,01,02,40,0.00
2016,08,01,02,41,0.00
2016,08,01,02,42,0.00
2016,08,01,02,43,0.00
2016,08,01,02,44,0.00
2016,08,01,02,45,0.00
2016,08,01,02,46,0.00
2016,08,01,02,47,0.00
2016,08,01,02,48,0.00
2016,08,01,02,49,0.00
2016,08,01,02,50,0.00
2016,08,01,02,51,0.00
2016,08,01,02,52,0.00
2016,08,01,02,53,0.00
2016,08,01,02,54,0.00
2016,08,01,02,55,0.00
2016,08,01,02,56,0.00
2016,08,01,02,57,0.00
2016,08,01,02,58,0.00
2016,08,01,02,59,0.00
2016,08,01,03,00,0.00
2016,08,01,03,01,0.00
2016,08,01,03,02,0.00
2016,08,01,03,03,0.00
2016,08,01,03,04,0.00
2016,08,01,03,05,0.00
2016,08,01,03,06,0.00
2016,08,01,03,07,0.00
2016,08,01,03,08,0.00
2016,08,01,03,09,0.00
2016,08,01,03,10,0.00
2016,08,01,03,11,0.00
2016,08,01,03,12,0.00
2016,08,01,03,13,0.00
2016,08,01,03,14,0.00
2016,08,01,03,15,0.00
2016,08,01,03,16,0.00
2016,08,01,03,17,0.00
2016,08,01,03,18,0.00
2016,08,01,03,19,0.00
2016,08,01,03,20,0.00
2016,08,01,03,21,0.00
2016,08,01,03,22,0.00
2016,08,01,03,23,0.00
2016,08,01,03,24,0.00
2016,08,01,03,25,0.00
2016,08,01,03,26,0.00
2016,08,01,03,27,0.00
2016,08,01,03,28,0.00
2016,08,01,03,29,0.00
2016,08,01,03,30,0.00
2016,08,01,03,31,0.00
2016,08,01,03,32,0.00
2016,08,01,03,33,0.00
2016,08,01,03,34,0.00
2016,08,01,03,35,0.00
2016,08,01,03,36,0.00
2016,08,01,03,37,0.00
2016,08,01,03,38,0.00
2016,08,01,03,39,0.00
2016,08,01,03,40,0.00
2016,08,01,03,41,0.00
2016,08,01,03,42,0.00
2016,08,01,03,43,0.00
2016,08,01,03,44,0.00
2016,08,01,03,45,0.00
2016,08,01,03,46,0.00
2016,08,01,03,47,0.00
2016,08,01,03,48,0.00
2016,08,01,03,49,0.00
2016,08,01,03,50,0.00
2016,08,01,03,51,0.00
2016,08,01,03,52,0.00
2016,08,01,03,53,0.00
2016,08,01,03,54,0.00
2016,08,01,03,55,0.00
2016,08,01,03,56,0.00
2016,08,01,03,57,0.00
2016,08,01,03,58,0.00
2016,08,01,03,59,0.00
2016,08,01,04,00,0.00
2016,08,01,04,01,0.00
2016,08,01,04,02,0.00
2016,08,01,04,03,0.00
2016,08,01,05,04,0.00
2016,08,01,05,05,0.00
2016,08,01,05,06,0.00
2016,08,01,05,07,0.00
2016,08,01,05,08,0.00
2016,08,01,05,09,0.00
2016,08,01,05,10,0.00
2016,08,01,05,11,0.00
2016,08,01,05,12,0.00
2016,08,01,05,13,0.00
2016,08,01,05,14,0.00
2016,08,01,05,15,0.00
2016,08,01,05,16,0.00
2016,08,01,05,17,0.00
2016,08,01,05,18,0.00
2016,08,01,05,19,0.00
2016,08,01,05,20,0.00
2016,08,01,05,21,0.00
2016,08,01,05,22,0.00
2016,08,01,05,23,0.00
2016,08,01,05,24,0.00
2016,08,01,05,25,0.00
2016,08,01,05,26,0.00
2016,08,01,05,27,0.00
2016,08,01,05,28,0.00
2016,08,01,05,29,0.00
2016,08,01,05,30,0.00
2016,08,01,05,31,0.00
2016,08,01,05,32,0.00
2016,08,01,05,33,0.00
2016,08,01,05,34,0.00
2016,08,01,05,35,0.00
2016,08,01,05,36,0.00
2016,08,01,05,37,0.00
2016,08,01,05,38,0.00
2016,08,01,05,39,0.00
2016,08,01,05,40,0.00
2016,08,01,05,41,0.00
2016,08,01,05,42,0.00
2016,08,01,05,43,0.00
2016,08,01,05,44,0.00
2016,08,01,05,45,0.00
2016,08,01,05,46,0.00
2016,08,01,05,47,0.00
2016,08,01,05,48,0.00
2016,08,01,05,49,0.00
2016,08,01,05,50,0.00
2016,08,01,05,51,3.20
2016,08,01,05,52,5.00
2016,08,01,05,53,5.00
2016,08,01,05,54,5.00
2016,08,01,05,55,5.00
2016,08,01,05,56,6.00
2016,08,01,05,57,7.00
2016,08,01,05,58,7.00
2016,08,01,05,59,7.20
2016,08,01,06,00,9.00
2016,08,01,06,01,9.00
2016,08,01,06,02,9.00
2016,08,01,06,03,10.30
2016,08,01,06,04,11.00
2016,08,01,06,05,11.10
2016,08,01,06,06,12.00
2016,08,01,06,07,12.00
2016,08,01,06,08,13.10
2016,08,01,06,09,14.00
2016,08,01,06,10,14.00
2016,08,01,06,11,16.00
2016,08,01,06,12,16.00
2016,08,01,06,13,16.80
2016,08,01,06,14,18.00
2016,08,01,06,15,18.00
2016,08,01,06,16,18.00
2016,08,01,06,17,19.00
2016,08,01,06,18,19.00
2016,08,01,06,19,19.90
2016,08,01,06,20,21.00
2016,08,01,06,21,21.00
2016,08,01,06,22,21.00
2016,08,01,06,23,23.00
2016,08,01,06,24,23.00
2016,08,01,06,25,23.00
2016,08,01,06,26,24.30
2016,08,01,06,27,25.00
2016,08,01,06,28,25.00
2016,08,01,06,29,25.20
2016,08,01,06,30,26.00
2016,08,01,06,31,26.00
2016,08,01,06,32,26.00
2016,08,01,06,33,27.60
2016,08,01,06,34,28.00
2016,08,01,06,35,28.00
2016,08,01,06,36,28.70
2016,08,01,06,37,30.00
2016,08,01,06,38,30.00
2016,08,01,06,39,30.00
2016,08,01,06,40,31.90
2016,08,01,06,41,32.00
2016,08,01,06,42,32.00
2016,08,01,06,43,32.50
2016,08,01,06,44,33.00
2016,08,01,06,45,33.00
2016,08,01,06,46,33.00
2016,08,01,06,47,33.50
2016,08,01,06,48,35.00
2016,08,01,06,49,35.00
2016,08,01,06,50,35.00
2016,08,01,06,51,36.70
2016,08,01,06,52,37.00
2016,08,01,06,53,41.20
2016,08,01,06,54,65.40
2016,08,01,06,55,99.80
2016,08,01,06,56,113.20
2016,08,01,06,57,115.70
2016,08,01,06,58,118.40
2016,08,01,06,59,121.60
2016,08,01,07,00,123.80
2016,08,01,07,01,126.10
2016,08,01,07,02,129.20
2016,08,01,07,03,131.90
2016,08,01,07,04,134.10
2016,08,01,07,05,135.60
2016,08,01,07,06,137.90
2016,08,01,07,07,140.70
2016,08,01,07,08,143.40
2016,08,01,07,09,145.90
2016,08,01,07,10,149.30
2016,08,01,07,11,151.70
2016,08,01,07,12,154.40
2016,08,01,07,13,157.20
2016,08,01,07,14,161.00
2016,08,01,07,15,163.30
2016,08,01,07,16,167.40
2016,08,01,07,17,169.70
2016,08,01,07,18,172.50
2016,08,01,07,19,176.60
2016,08,01,07,20,178.80
2016,08,01,07,21,182.80
2016,08,01,07,22,185.80
2016,08,01,07,23,188.80
2016,08,01,07,24,191.10
2016,08,01,07,25,192.70
2016,08,01,07,26,196.20
2016,08,01,07,27,199.10
2016,08,01,07,28,200.50
2016,08,01,07,29,203.60
2016,08,01,07,30,206.60
2016,08,01,07,31,209.80
2016,08,01,07,32,215.20
2016,08,01,07,33,220.20
2016,08,01,07,34,223.60
2016,08,01,07,35,226.70
2016,08,01,07,36,229.60
2016,08,01,07,37,232.80
2016,08,01,07,38,236.60
2016,08,01,07,39,239.30
2016,08,01,07,40,241.60
2016,08,01,07,41,244.30
2016,08,01,07,42,247.10
2016,08,01,07,43,249.50
2016,08,01,07,44,251.00
2016,08,01,07,45,253.30
2016,08,01,07,46,255.90
2016,08,01,07,47,259.00
2016,08,01,07,48,261.30
2016,08,01,07,49,263.50
2016,08,01,07,50,266.80
2016,08,01,07,51,269.40
2016,08,01,07,52,271.90
2016,08,01,07,53,275.80
2016,08,01,07,54,278.60
2016,08,01,07,55,280.60
2016,08,01,07,56,283.10
2016,08,01,07,57,285.80
2016,08,01,07,58,288.70
2016,08,01,07,59,291.00
2016,08,01,08,00,294.00
2016,08,01,08,01,296.60
2016,08,01,08,02,300.80
2016,08,01,08,03,301.20
2016,08,01,08,04,303.50
2016,08,01,08,05,307.00
2016,08,01,08,06,310.00
2016,08,01,08,07,312.60
2016,08,01,08,08,317.90
2016,08,01,08,09,320.50
2016,08,01,08,10,322.40
2016,08,01,08,11,325.10
2016,08,01,08,12,328.30
2016,08,01,08,13,329.80
2016,08,01,08,14,332.40
2016,08,01,08,15,336.60
2016,08,01,08,16,339.30
2016,08,01,08,17,342.10
2016,08,01,08,18,345.20
2016,08,01,08,19,347.70
2016,08,01,08,20,352.20
2016,08,01,08,21,353.60
2016,08,01,08,22,355.80
2016,08,01,08,23,359.90
2016,08,01,08,24,363.50
2016,08,01,08,25,365.70
2016,08,01,08,26,369.30
2016,08,01,08,27,371.90
2016,08,01,08,28,374.00
2016,08,01,08,29,377.60
2016,08,01,08,30,380.00
2016,08,01,08,31,382.80
2016,08,01,08,32,385.40
2016,08,01,08,33,387.00
2016,08,01,08,34,389.20
2016,08,01,08,35,392.00
2016,08,01,08,36,395.20
2016,08,01,08,37,397.30
2016,08,01,08,38,401.40
2016,08,01,08,39,403.40
2016,08,01,08,40,406.00
2016,08,01,08,41,409.30
2016,08,01,08,42,412.20
2016,08,01,08,43,415.00
2016,08,01,08,44,418.40
2016,08,01,08,45,420.70
2016,08,01,08,46,423.00
2016,08,01,08,47,426.00
2016,08,01,08,48,428.60
2016,08,01,08,49,431.10
2016,08,01,08,50,432.50
2016,08,01,08,51,435.50
2016,08,01,08,52,438.50
2016,08,01,08,53,441.70
2016,08,01,08,54,444.70
2016,08,01,08,55,446.10
2016,08,01,08,56,448.60
2016,08,01,08,57,450.80
2016,08,01,08,58,453.60
2016,08,01,08,59,457.80
2016,08,01,09,00,461.50
2016,08,01,09,01,464.60
2016,08,01,09,02,468.30
2016,08,01,09,03,469.80
2016,08,01,09,04,471.00
2016,08,01,09,05,474.80
2016,08,01,09,06,477.80
2016,08,01,09,07,480.30
2016,08,01,09,08,482.90
2016,08,01,09,09,485.90
2016,08,01,09,10,488.80
2016,08,01,09,11,491.50
2016,08,01,09,12,493.90
2016,08,01,09,13,496.50
2016,08,01,09,14,500.40
2016,08,01,09,15,503.50
2016,08,01,09,16,504.00
2016,08,01,09,17,507.00
2016,08,01,09,18,510.00
2016,08,01,09,19,512.20
2016,08,01,09,20,514.40
2016,08,01,09,21,518.00
2016,08,01,09,22,519.60
2016,08,01,09,23,521.50
2016,08,01,09,24,524.10
2016,08,01,09,25,527.00
2016,08,01,09,26,527.70
2016,08,01,09,27,530.10
2016,08,01,09,28,533.10
2016,08,01,09,29,535.60
2016,08,01,09,30,539.60
2016,08,01,09,31,540.20
2016,08,01,09,32,541.80
2016,08,01,09,33,545.10
2016,08,01,09,34,547.70
2016,08,01,09,35,549.70
2016,08,01,09,36,553.90
2016,08,01,09,37,555.60
2016,08,01,09,38,557.80
2016,08,01,09,39,560.10
2016,08,01,09,40,562.40
2016,08,01,09,41,565.50
2016,08,01,09,42,566.40
2016,08,01,09,43,570.20
2016,08,01,09,44,571.80
2016,08,01,09,45,574.20
2016,08,01,09,46,576.50
2016,08,01,09,47,579.50
2016,08,01,09,48,582.50
2016,08,01,09,49,585.00
2016,08,01,09,50,586.80
2016,08,01,09,51,590.20
2016,08,01,09,52,591.80
2016,08,01,09,53,594.00
2016,08,01,09,54,598.00
2016,08,01,09,55,598.90
2016,08,01,09,56,601.00
2016,08,01,09,57,602.20
2016,08,01,09,58,605.40
2016,08,01,09,59,606.10
2016,08,01,10,00,608.40
2016,08,01,10,01,610.70
2016,08,01,10,02,612.50
2016,08,01,10,03,614.20
2016,08,01,10,04,616.60
2016,08,01,10,05,619.10
2016,08,01,10,06,621.80
2016,08,01,10,07,622.00
2016,08,01,10,08,625.10
2016,08,01,10,09,626.00
2016,08,01,10,10,627.60
2016,08,01,10,11,631.20
2016,08,01,10,12,633.50
2016,08,01,10,13,635.40
2016,08,01,10,14,637.00
2016,08,01,10,15,639.30
2016,08,01,10,16,640.00
2016,08,01,10,17,642.10
2016,08,01,10,18,644.00
2016,08,01,10,19,647.00
2016,08,01,10,20,648.10
2016,08,01,10,21,649.70
2016,08,01,10,22,651.70
2016,08,01,10,23,654.30
2016,08,01,10,24,656.30
2016,08,01,10,25,657.80
2016,08,01,10,26,660.10
2016,08,01,10,27,661.00
2016,08,01,10,28,663.50
2016,08,01,10,29,664.40
2016,08,01,10,30,666.60
2016,08,01,10,31,668.90
2016,08,01,10,32,670.60
2016,08,01,10,33,672.50
2016,08,01,10,34,674.70
2016,08,01,10,35,675.60
2016,08,01,10,36,679.00
2016,08,01,10,37,679.00
2016,08,01,10,38,680.90
2016,08,01,10,39,683.50
2016,08,01,10,40,685.90
2016,08,01,10,41,686.60
2016,08,01,10,42,689.00
2016,08,01,10,43,690.00
2016,08,01,10,44,692.30
2016,08,01,10,45,693.80
2016,08,01,10,46,696.10
2016,08,01,10,47,698.00
2016,08,01,10,48,698.70
2016,08,01,10,49,700.50
2016,08,01,10,50,703.60
2016,08,01,10,51,706.60
2016,08,01,10,52,707.00
2016,08,01,10,53,707.20
2016,08,01,10,54,708.70
2016,08,01,10,55,711.10
2016,08,01,10,56,713.40
2016,08,01,10,57,716.40
2016,08,01,10,58,717.40
2016,08,01,10,59,721.00
2016,08,01,11,00,721.40
2016,08,01,11,01,724.20
2016,08,01,11,02,724.60
2016,08,01,11,03,724.00
2016,08,01,11,04,726.30
2016,08,01,11,05,728.30
2016,08,01,11,06,729.80
2016,08,01,11,07,732.10
2016,08,01,11,08,733.00
2016,08,01,11,09,736.40
2016,08,01,11,10,737.20
2016,08,01,11,11,739.30
2016,08,01,11,12,742.00
2016,08,01,11,13,743.20
2016,08,01,11,14,744.00
2016,08,01,11,15,745.00
2016,08,01,11,16,747.00
2016,08,01,11,17,747.70
2016,08,01,11,18,749.90
2016,08,01,11,19,751.00
2016,08,01,11,20,751.00
2016,08,01,11,21,751.00
2016,08,01,11,22,751.60
2016,08,01,11,23,754.70
2016,08,01,11,24,757.00
2016,08,01,11,25,758.70
2016,08,01,11,26,756.60
2016,08,01,11,27,760.30
2016,08,01,11,28,759.40
2016,08,01,11,29,761.00
2016,08,01,11,30,762.00
2016,08,01,11,31,764.30
2016,08,01,11,32,765.00
2016,08,01,11,33,766.00
2016,08,01,11,34,766.00
2016,08,01,11,35,766.70
2016,08,01,11,36,768.00
2016,08,01,11,37,770.60
2016,08,01,11,38,770.40
2016,08,01,11,39,772.00
2016,08,01,11,40,773.50
2016,08,01,11,41,775.00
2016,08,01,11,42,776.10
2016,08,01,11,43,778.40
2016,08,01,11,44,777.20
2016,08,01,11,45,780.00
2016,08,01,11,46,780.50
2016,08,01,11,47,781.20
2016,08,01,11,48,783.30
2016,08,01,11,49,781.80
2016,08,01,11,50,785.40
2016,08,01,11,51,788.00
2016,08,01,11,52,788.00
2016,08,01,11,53,788.50
2016,08,01,11,54,789.00
2016,08,01,11,55,789.00
2016,08,01,11,56,792.40
2016,08,01,11,57,793.00
2016,08,01,11,58,793.00
2016,08,01,11,59,793.90
2016,08,01,12,00,793.80
2016,08,01,12,01,794.50
2016,08,01,12,02,795.00
2016,08,01,12,03,795.20
2016,08,01,12,04,795.70
2016,08,01,12,05,796.50
2016,08,01,12,06,799.30
2016,08,01,12,07,800.00
2016,08,01,12,08,800.00
2016,08,01,12,09,800.00
2016,08,01,12,10,801.00
2016,08,01,12,11,802.50
2016,08,01,12,12,800.70
2016,08,01,12,13,801.60
2016,08,01,12,14,804.80
2016,08,01,12,15,805.00
2016,08,01,12,16,805.80
2016,08,01,12,17,804.90
2016,08,01,12,18,804.30
2016,08,01,12,19,806.60
2016,08,01,12,20,808.90
2016,08,01,12,21,809.00
2016,08,01,12,22,810.20
2016,08,01,12,23,809.20
2016,08,01,12,24,809.10
2016,08,01,12,25,810.00
2016,08,01,12,26,811.70
2016,08,01,12,27,811.80
2016,08,01,12,28,815.80
2016,08,01,12,29,811.20
2016,08,01,12,30,812.50
2016,08,01,12,31,814.00
2016,08,01,12,32,814.30
2016,08,01,12,33,816.00
2016,08,01,12,34,816.00
2016,08,01,12,35,816.00
2016,08,01,12,36,816.00
2016,08,01,12,37,818.50
2016,08,01,12,38,818.60
2016,08,01,12,39,817.00
2016,08,01,12,40,817.00
2016,08,01,12,41,818.20
2016,08,01,12,42,819.00
2016,08,01,12,43,817.20
2016,08,01,12,44,817.00
2016,08,01,12,45,817.70
2016,08,01,12,46,819.00
2016,08,01,12,47,820.30
2016,08,01,12,48,819.40
2016,08,01,12,49,820.80
2016,08,01,12,50,819.50
2016,08,01,12,51,821.00
2016,08,01,12,52,821.00
2016,08,01,12,53,819.70
2016,08,01,12,54,813.40
2016,08,01,12,55,820.50
2016,08,01,12,56,821.00
2016,08,01,12,57,821.80
2016,08,01,12,58,820.80
2016,08,01,12,59,821.60
2016,08,01,13,00,823.00
2016,08,01,13,01,821.20
2016,08,01,13,02,823.00
2016,08,01,13,03,823.00
2016,08,01,13,04,823.00
2016,08,01,13,05,821.60
2016,08,01,13,06,822.70
2016,08,01,13,07,824.00
2016,08,01,13,08,823.70
2016,08,01,13,09,822.10
2016,08,01,13,10,822.70
2016,08,01,13,11,823.30
2016,08,01,13,12,823.00
2016,08,01,13,13,823.00
2016,08,01,13,14,823.00
2016,08,01,13,15,825.20
2016,08,01,13,16,825.10
2016,08,01,13,17,823.00
2016,08,01,13,18,823.80
2016,08,01,13,19,823.20
2016,08,01,13,20,823.00
2016,08,01,13,21,821.90
2016,08,01,13,22,821.80
2016,08,01,13,23,821.00
2016,08,01,13,24,819.20
2016,08,01,13,25,819.30
2016,08,01,13,26,821.00
2016,08,01,13,27,821.00
2016,08,01,13,28,822.30
2016,08,01,13,29,823.00
2016,08,01,13,30,822.80
2016,08,01,13,31,820.50
2016,08,01,13,32,819.00
2016,08,01,13,33,818.00
2016,08,01,13,34,817.00
2016,08,01,13,35,816.20
2016,08,01,13,36,816.00
2016,08,01,13,37,816.00
2016,08,01,13,38,815.30
2016,08,01,13,39,815.00
2016,08,01,13,40,816.70
2016,08,01,13,41,814.60
2016,08,01,13,42,814.00
2016,08,01,13,43,814.00
2016,08,01,13,44,814.00
2016,08,01,13,45,811.80
2016,08,01,13,46,811.40
2016,08,01,13,47,810.40
2016,08,01,13,48,809.00
2016,08,01,13,49,809.00
2016,08,01,13,50,808.10
2016,08,01,13,51,805.80
2016,08,01,13,52,806.40
2016,08,01,13,53,805.30
2016,08,01,13,54,805.30
2016,08,01,13,55,807.00
2016,08,01,13,56,806.10
2016,08,01,13,57,806.20
2016,08,01,13,58,805.50
2016,08,01,13,59,805.00
2016,08,01,14,00,805.00
2016,08,01,14,01,804.40
2016,08,01,14,02,803.00
2016,08,01,14,03,802.40
2016,08,01,14,04,800.50
2016,08,01,14,05,800.00
2016,08,01,14,06,800.00
2016,08,01,14,07,798.80
2016,08,01,14,08,795.50
2016,08,01,14,09,795.00
2016,08,01,14,10,795.00
2016,08,01,14,11,793.20
2016,08,01,14,12,792.20
2016,08,01,14,13,789.00
2016,08,01,14,14,789.00
2016,08,01,14,15,788.40
2016,08,01,14,16,788.80
2016,08,01,14,17,787.80
2016,08,01,14,18,785.60
2016,08,01,14,19,784.00
2016,08,01,14,20,783.00
2016,08,01,14,21,782.00
2016,08,01,14,22,780.40
2016,08,01,14,23,779.90
2016,08,01,14,24,778.50
2016,08,01,14,25,776.30
2016,08,01,14,26,775.00
2016,08,01,14,27,775.00
2016,08,01,14,28,773.40
2016,08,01,14,29,772.80
2016,08,01,14,30,772.00
2016,08,01,14,31,771.20
2016,08,01,14,32,770.00
2016,08,01,14,33,768.60
2016,08,01,14,34,766.30
2016,08,01,14,35,765.20
2016,08,01,14,36,765.10
2016,08,01,14,37,763.00
2016,08,01,14,38,761.90
2016,08,01,14,39,761.00
2016,08,01,14,40,759.30
2016,08,01,14,41,759.00
2016,08,01,14,42,758.10
2016,08,01,14,43,755.20
2016,08,01,14,44,755.10
2016,08,01,14,45,753.20
2016,08,01,14,46,752.00
2016,08,01,14,47,751.80
2016,08,01,14,48,750.30
2016,08,01,14,49,749.00
2016,08,01,14,50,746.60
2016,08,01,14,51,745.00
2016,08,01,14,52,744.90
2016,08,01,14,53,743.20
2016,08,01,14,54,740.00
2016,08,01,14,55,740.00
2016,08,01,14,56,738.70
2016,08,01,14,57,738.00
2016,08,01,14,58,737.10
2016,08,01,14,59,736.60
2016,08,01,15,00,735.00
2016,08,01,15,01,735.00
2016,08,01,15,02,735.00
2016,08,01,15,03,733.40
2016,08,01,15,04,733.00
2016,08,01,15,05,731.80
2016,08,01,15,06,728.00
2016,08,01,15,07,726.90
2016,08,01,15,08,726.00
2016,08,01,15,09,724.40
2016,08,01,15,10,721.70
2016,08,01,15,11,719.00
2016,08,01,15,12,717.40
2016,08,01,15,13,715.00
2016,08,01,15,14,714.30
2016,08,01,15,15,712.40
2016,08,01,15,16,711.70
2016,08,01,15,17,709.50
2016,08,01,15,18,707.60
2016,08,01,15,19,687.80
2016,08,01,15,20,695.60
2016,08,01,15,21,702.80
2016,08,01,15,22,700.00
2016,08,01,15,23,698.80
2016,08,01,15,24,696.00
2016,08,01,15,25,693.10
2016,08,01,15,26,691.00
2016,08,01,15,27,689.20
2016,08,01,15,28,690.70
2016,08,01,15,29,688.10
2016,08,01,15,30,684.20
2016,08,01,15,31,682.00
2016,08,01,15,32,680.40
2016,08,01,15,33,677.20
2016,08,01,15,34,675.00
2016,08,01,15,35,674.40
2016,08,01,15,36,671.70
2016,08,01,15,37,668.80
2016,08,01,15,38,664.80
2016,08,01,15,39,663.10
2016,08,01,15,40,664.00
2016,08,01,15,41,510.40
2016,08,01,15,42,225.00
2016,08,01,15,43,520.60
2016,08,01,15,44,653.00
2016,08,01,15,45,653.50
2016,08,01,15,46,650.40
2016,08,01,15,47,651.00
2016,08,01,15,48,649.00
2016,08,01,15,49,646.30
2016,08,01,15,50,645.00
2016,08,01,15,51,642.20
2016,08,01,15,52,641.40
2016,08,01,15,53,639.20
2016,08,01,15,54,637.00
2016,08,01,15,55,635.30
2016,08,01,15,56,631.80
2016,08,01,15,57,629.00
2016,08,01,15,58,628.00
2016,08,01,15,59,626.40
2016,08,01,16,00,622.90
2016,08,01,16,01,619.90
2016,08,01,16,02,617.20
2016,08,01,16,03,614.60
2016,08,01,16,04,611.50
2016,08,01,16,05,610.00
2016,08,01,16,06,608.80
2016,08,01,16,07,605.80
2016,08,01,16,08,605.00
2016,08,01,16,09,602.40
2016,08,01,16,10,599.00
2016,08,01,16,11,598.50
2016,08,01,16,12,596.70
2016,08,01,16,13,596.00
2016,08,01,16,14,593.60
2016,08,01,16,15,588.50
2016,08,01,16,16,586.20
2016,08,01,16,17,583.40
2016,08,01,16,18,580.70
2016,08,01,16,19,578.40
2016,08,01,16,20,575.00
2016,08,01,16,21,573.90
2016,08,01,16,22,570.60
2016,08,01,16,23,568.90
2016,08,01,16,24,566.50
2016,08,01,16,25,566.00
2016,08,01,16,26,563.80
2016,08,01,16,27,562.40
2016,08,01,16,28,556.40
2016,08,01,16,29,545.30
2016,08,01,16,30,531.20
2016,08,01,16,31,508.50
2016,08,01,16,32,474.50
2016,08,01,16,33,429.10
2016,08,01,16,34,377.60
2016,08,01,16,35,329.40
2016,08,01,16,36,270.80
2016,08,01,16,37,215.10
2016,08,01,16,38,156.80
2016,08,01,16,39,123.50
2016,08,01,16,40,98.20
2016,08,01,16,41,86.40
2016,08,01,16,42,80.00
2016,08,01,16,43,78.70
2016,08,01,16,44,73.20
2016,08,01,16,45,69.70
2016,08,01,16,46,67.00
2016,08,01,16,47,63.70
2016,08,01,16,48,62.20
2016,08,01,16,49,62.00
2016,08,01,16,50,62.00
2016,08,01,16,51,62.00
2016,08,01,16,52,62.00
2016,08,01,16,53,62.00
2016,08,01,16,54,62.00
2016,08,01,16,55,61.70
2016,08,01,16,56,60.00
2016,08,01,16,57,60.00
2016,08,01,16,58,60.00
2016,08,01,16,59,60.00
2016,08,01,17,00,60.00
2016,08,01,17,01,60.00
2016,08,01,17,02,60.00
2016,08,01,17,03,60.00
2016,08,01,17,04,60.00
2016,08,01,17,05,60.00
2016,08,01,17,06,60.00
2016,08,01,17,07,60.00
2016,08,01,17,08,59.50
2016,08,01,17,09,58.00
2016,08,01,17,10,58.00
2016,08,01,17,11,58.00
2016,08,01,17,12,58.00
2016,08,01,17,13,58.00
2016,08,01,17,14,58.00
2016,08,01,17,15,58.00
2016,08,01,17,16,58.00
2016,08,01,17,17,58.00
2016,08,01,17,18,58.00
2016,08,01,17,19,58.00
2016,08,01,17,20,58.00
2016,08,01,17,21,58.00
2016,08,01,17,22,56.80
2016,08,01,17,23,56.00
2016,08,01,17,24,56.00
2016,08,01,17,25,56.00
2016,08,01,17,26,56.00
2016,08,01,17,27,56.00
2016,08,01,17,28,56.00
2016,08,01,17,29,56.00
2016,08,01,17,30,56.00
2016,08,01,17,31,56.00
2016,08,01,17,32,56.00
2016,08,01,17,33,56.00
2016,08,01,17,34,57.40
2016,08,01,17,35,58.00
2016,08,01,17,36,57.80
2016,08,01,17,37,56.00
2016,08,01,17,38,56.00
2016,08,01,17,39,54.90
2016,08,01,17,40,54.00
2016,08,01,17,41,54.00
2016,08,01,17,42,54.00
2016,08,01,17,43,54.00
2016,08,01,17,44,54.00
2016,08,01,17,45,54.00
2016,08,01,17,46,54.00
2016,08,01,17,47,53.20
2016,08,01,17,48,53.00
2016,08,01,17,49,53.00
2016,08,01,17,50,53.00
2016,08,01,17,51,53.00
2016,08,01,17,52,53.00
2016,08,01,17,53,53.00
2016,08,01,17,54,53.00
2016,08,01,17,55,53.00
2016,08,01,17,56,53.00
2016,08,01,17,57,53.00
2016,08,01,17,58,53.00
2016,08,01,17,59,53.00
2016,08,01,18,00,53.00
2016,08,01,18,01,53.00
2016,08,01,18,02,53.00
2016,08,01,18,03,51.80
2016,08,01,18,04,51.00
2016,08,01,18,05,51.00
2016,08,01,18,06,51.00
2016,08,01,18,07,51.00